Santa Barbara — 3FWW8 — position and weather

sailwx.info

Track history (hours):
 
Tides and Currents Weather Stations Pressure Air Temp Water Temp Dewpoint Dewpoint Depression Visibility Wind Speed Wind Dir Waves Ship Positions

Santa Barbara

Last reported at 2014-Oct-24 16:24 UTC. Time now 2014-Oct-25 03:34 UTC.
Position N 45°39' W 122°44'.

Length 225 m; draft 6.4 m.

Type: Cargo ship. MMSI: 372230000.

Date/timePositionNaut miles runAvg speedWind from/ knotsBaromVisibWave heightAir tempDewpointWater temp
2014-Oct-24 16:24N 45°39' W 122°44'0 0.0
2014-Oct-24 11:05N 45°39' W 122°44'0 0.0
2014-Oct-24 10:17N 45°39' W 122°44'0 0.0
2014-Oct-23 17:17N 45°39' W 122°44'0 0.0
2014-Oct-23 15:05N 45°39' W 122°44'0 0.0
2014-Oct-23 06:05N 45°39' W 122°44'0 0.0
2014-Oct-23 05:17N 45°39' W 122°44'7 6.8
2014-Oct-23 04:15N 45°46' W 122°46'44 9.3
2014-Oct-22 23:34N 46°16' W 123°30'1211.8
2014-Oct-22 22:34N 46°13' W 123°47'8 8.5
2014-Oct-22 21:34N 46°14' W 123°59'1010.1
2014-Oct-22 20:33N 46°12' W 124°13'7 6.4
2014-Oct-22 19:30N 46°07' W 124°20'10 0.4
2014-Oct-21 21:15N 45°58' W 124°17'4 5.5
2014-Oct-21 20:33N 45°58' W 124°12'4 3.4
2014-Oct-21 19:30N 45°55' W 124°15'9 0.7
2014-Oct-21 07:10N 45°59' W 124°26'4 7.4
2014-Oct-21 06:34N 46°02' W 124°21'10 8.2
2014-Oct-21 05:18N 46°09' W 124°32'  
Track history (hours):
 
Tides and Currents Weather Stations Pressure Air Temp Water Temp Dewpoint Dewpoint Depression Visibility Wind Speed Wind Dir Waves Ship Positions

Santa Barbara

Last reported at 2014-Oct-24 16:24 UTC. Time now 2014-Oct-25 03:34 UTC.
Position N 45°39' W 122°44'.

Length 225 m; draft 6.4 m.

Type: Cargo ship. MMSI: 372230000.

Date/timePositionNaut miles runAvg speedWind from/ knotsBaromVisibWave heightAir tempDewpointWater temp
2014-Oct-24 16:24N 45°39' W 122°44'0 0.0
2014-Oct-24 11:05N 45°39' W 122°44'0 0.0
2014-Oct-24 10:17N 45°39' W 122°44'0 0.0
2014-Oct-23 17:17N 45°39' W 122°44'0 0.0
2014-Oct-23 15:05N 45°39' W 122°44'0 0.0
2014-Oct-23 06:05N 45°39' W 122°44'0 0.0
2014-Oct-23 05:17N 45°39' W 122°44'7 6.8
2014-Oct-23 04:15N 45°46' W 122°46'44 9.3
2014-Oct-22 23:34N 46°16' W 123°30'1211.8
2014-Oct-22 22:34N 46°13' W 123°47'8 8.5
2014-Oct-22 21:34N 46°14' W 123°59'1010.1
2014-Oct-22 20:33N 46°12' W 124°13'7 6.4
2014-Oct-22 19:30N 46°07' W 124°20'10 0.4
2014-Oct-21 21:15N 45°58' W 124°17'4 5.5
2014-Oct-21 20:33N 45°58' W 124°12'4 3.4
2014-Oct-21 19:30N 45°55' W 124°15'9 0.7
2014-Oct-21 07:10N 45°59' W 124°26'4 7.4
2014-Oct-21 06:34N 46°02' W 124°21'10 8.2
2014-Oct-21 05:18N 46°09' W 124°32'  

Dump ship's entire track history